TimeCDT,TemperatureF,Dew PointF,Humidity,Sea Level PressureIn,VisibilityMPH,Wind Direction,Wind SpeedMPH,Gust SpeedMPH,PrecipitationIn,Events,Conditions,WindDirDegrees,DateUTC
12:53 AM,66.0,59.0,78,30.10,10.0,NE,8.1,-,N/A,,Clear,40,2013-05-24 05:53:00
1:53 AM,66.0,57.0,73,30.11,10.0,NE,12.7,-,N/A,,Clear,40,2013-05-24 06:53:00
2:53 AM,64.0,55.0,73,30.11,10.0,NE,11.5,-,N/A,,Clear,40,2013-05-24 07:53:00
3:53 AM,62.1,55.9,80,30.12,10.0,NE,6.9,-,N/A,,Clear,40,2013-05-24 08:53:00
4:53 AM,61.0,55.9,83,30.14,10.0,NNE,9.2,-,N/A,,Clear,30,2013-05-24 09:53:00
5:53 AM,60.1,55.0,83,30.17,10.0,NE,10.4,-,N/A,,Clear,40,2013-05-24 10:53:00
6:53 AM,60.1,55.0,83,30.20,10.0,NE,10.4,-,N/A,,Clear,40,2013-05-24 11:53:00
7:53 AM,62.1,54.0,75,30.23,10.0,NE,12.7,-,N/A,,Partly Cloudy,50,2013-05-24 12:53:00
8:53 AM,64.0,54.0,70,30.25,10.0,ENE,11.5,-,N/A,,Clear,60,2013-05-24 13:53:00
9:53 AM,66.0,54.0,65,30.25,10.0,NE,10.4,-,N/A,,Clear,50,2013-05-24 14:53:00
10:53 AM,69.1,52.0,54,30.25,10.0,NE,13.8,21.9,N/A,,Clear,40,2013-05-24 15:53:00
11:53 AM,70.0,50.0,49,30.26,10.0,NNE,16.1,23.0,N/A,,Clear,30,2013-05-24 16:53:00
12:53 PM,73.0,48.9,42,30.25,10.0,ENE,12.7,17.3,N/A,,Clear,70,2013-05-24 17:53:00
1:53 PM,75.0,50.0,41,30.24,10.0,NE,12.7,-,N/A,,Clear,40,2013-05-24 18:53:00
2:53 PM,77.0,48.9,37,30.24,10.0,North,6.9,19.6,N/A,,Clear,350,2013-05-24 19:53:00
3:53 PM,75.9,48.0,37,30.24,10.0,NE,9.2,-,N/A,,Clear,40,2013-05-24 20:53:00
4:53 PM,75.9,46.0,35,30.22,10.0,ENE,8.1,-,N/A,,Clear,60,2013-05-24 21:53:00
5:53 PM,75.9,48.9,38,30.20,10.0,ENE,12.7,-,N/A,,Clear,60,2013-05-24 22:53:00
6:53 PM,73.9,46.0,37,30.19,10.0,East,8.1,-,N/A,,Clear,90,2013-05-24 23:53:00
7:53 PM,70.0,48.9,47,30.21,10.0,ENE,5.8,-,N/A,,Clear,70,2013-05-25 00:53:00
8:53 PM,66.9,48.9,52,30.22,10.0,East,4.6,-,N/A,,Clear,80,2013-05-25 01:53:00
9:53 PM,62.1,51.1,67,30.24,10.0,Calm,Calm,-,N/A,,Clear,0,2013-05-25 02:53:00
10:53 PM,60.1,52.0,75,30.25,10.0,Calm,Calm,-,N/A,,Clear,0,2013-05-25 03:53:00
11:53 PM,57.9,52.0,81,30.24,10.0,ENE,3.5,-,N/A,,Clear,70,2013-05-25 04:53:00